RH
81 80 76 71 66 64 63 61 59 56 52 44 33 23 16 13 13 13 13 13 13 14 15 17 19 21 22 21 21 21 19 15 15 18 20 19 18 21 29 39 46 50 53 53 50 47 41 36 31 25 17 14 12 9 7 7 5 4 3 3 3 3 3 3 4 4 4 4 5 5 5 6 6 6 6 6 7 6 7 7 7 7 7 6 5 4 3 3
67 63 58 51 47 44 43 41 40 37 29 19 11 8 7 9 10 11 13 14 15 16 16 17 19 23 25 25 26 26 24 21 20 21 22 22 20 22 27 38 47 52 56 53 50 47 43 38 34 26 17 14 12 9 8 7 6 5 4 4 3 3 3 4 4 4 4 5 5 6 6 7 7 7 7 7 7 7 7 7 7 7 6 5 4 3 3 3
40 35 30 26 23 22 21 21 19 15 11 7 6 6 6 7 7 8 9 10 10 10 11 12 14 19 24 26 26 26 26 26 25 24 23 23 23 23 28 39 49 55 58 55 51 49 45 42 38 30 20 15 12 9 7 7 6 5 4 4 4 3 4 4 5 4 5 5 6 7 8 8 8 8 8 8 8 8 8 8 7 7 6 5 4 4 3 3
17 14 12 11 10 9 9 9 8 7 6 6 6 5 6 5 5 5 5 5 5 5 6 6 8 12 16 18 21 22 23 25 25 24 25 25 26 27 31 39 47 54 58 57 53 48 44 41 37 30 23 16 10 7 5 5 6 5 4 4 4 3 4 4 5 5 5 6 7 7 8 8 8 9 9 9 9 9 8 8 7 7 6 6 6 6 6 6
9 8 7 7 7 6 6 6 6 6 6 6 5 5 5 4 5 4 5 5 5 5 5 5 6 7 9 11 17 19 19 25 27 28 30 32 32 32 34 39 45 52 56 56 52 47 43 40 36 30 23 14 8 6 4 4 5 4 4 4 4 4 4 5 5 5 6 6 7 8 8 8 9 9 9 9 9 9 9 8 8 8 7 8 8 8 9 9
8 7 7 7 6 6 6 5 5 5 5 5 5 5 5 6 6 6 7 7 7 8 7 7 7 8 9 11 19 21 21 27 31 33 35 37 40 40 39 41 44 48 53 53 49 47 45 40 35 27 19 12 7 6 5 5 6 6 5 5 5 5 5 6 6 7 7 7 8 8 9 9 10 10 10 10 9 9 10 10 9 9 9 9 10 10 11 12
8 7 7 6 5 5 5 5 5 5 6 6 6 7 8 9 9 10 10 10 10 9 9 11 12 14 16 18 24 25 26 32 36 40 43 47 51 53 54 54 54 55 55 55 54 52 47 40 30 20 14 10 6 6 6 6 7 7 7 7 6 6 7 7 8 9 9 9 9 9 10 10 10 11 11 11 11 11 11 11 11 10 10 10 10 11 12 13
7 6 6 5 5 5 5 6 6 7 8 8 10 10 11 11 11 12 11 12 12 11 11 12 15 19 21 23 27 30 35 40 44 48 53 59 64 67 70 69 67 64 61 59 58 54 47 39 26 15 11 8 5 5 6 6 7 7 7 8 8 8 9 9 10 11 11 11 11 11 11 11 11 12 13 13 12 12 12 12 11 11 11 10 10 11 12 13
6 5 5 6 6 6 7 8 9 10 12 12 13 14 14 14 13 14 13 13 12 11 12 12 17 21 23 27 29 37 45 46 48 51 54 60 64 69 71 69 67 63 59 54 49 43 37 31 23 17 12 8 7 7 6 6 6 7 7 8 8 8 9 10 11 11 11 11 12 12 12 12 12 13 14 14 12 13 12 12 11 11 11 11 11 11 12 13
6 6 7 7 8 9 10 12 14 15 16 16 17 16 16 16 15 15 14 14 13 12 13 13 17 20 27 32 33 44 50 47 51 55 59 61 62 64 63 61 60 55 50 43 35 27 21 17 13 11 11 10 11 12 12 12 11 10 9 9 9 8 9 10 11 11 11 12 13 13 13 13 14 14 15 14 13 13 12 12 11 11 11 11 11 12 13 13
8 8 9 10 12 14 15 18 19 20 20 20 20 19 18 17 17 16 14 14 14 14 15 17 19 20 29 35 40 52 53 51 58 61 66 70 69 67 62 59 56 49 42 31 23 16 11 8 6 7 8 9 11 13 15 17 18 18 17 15 13 12 11 12 13 13 13 14 14 14 13 14 15 16 16 14 13 13 12 12 11 11 11 11 12 12 13 14
9 11 14 16 19 21 22 23 23 24 24 24 24 22 21 20 19 18 16 16 15 18 20 21 22 25 33 42 51 58 57 60 68 68 69 72 73 69 62 56 49 41 34 24 16 11 8 6 7 8 9 10 11 12 12 13 14 16 17 17 16 15 15 15 16 16 16 17 17 16 15 15 17 17 16 15 14 13 13 12 11 11 11 11 11 13 14 14
14 18 22 25 27 28 28 28 28 27 26 25 25 24 23 22 21 20 20 20 21 26 30 31 30 32 41 53 60 62 62 67 74 78 76 71 68 63 57 52 41 30 25 20 15 10 8 7 8 9 10 11 11 11 11 10 10 10 12 12 13 14 15 16 17 18 19 18 18 17 15 16 18 18 17 16 15 14 13 12 12 11 11 11 12 13 15 15
24 27 29 30 31 31 32 32 31 30 28 26 25 25 24 23 21 20 21 23 28 34 40 42 42 44 52 61 66 67 69 70 73 79 81 76 70 65 62 59 51 39 30 25 20 14 11 9 9 9 9 10 10 11 12 12 13 13 13 13 14 15 14 16 16 17 18 17 17 16 15 15 17 17 17 16 15 14 13 12 12 11 11 12 12 14 16 15
33 34 34 34 34 34 34 34 34 33 31 28 26 26 25 22 21 20 21 24 30 38 45 50 53 57 63 69 70 71 72 70 68 69 72 74 75 74 72 66 57 43 32 27 22 17 15 13 10 9 9 10 11 12 13 14 15 16 17 16 16 16 16 16 17 18 17 17 17 16 15 15 15 16 15 15 14 13 13 12 12 11 12 13 14 14 14 14
39 39 39 40 40 39 37 36 36 35 34 32 29 26 24 22 21 20 22 26 34 42 49 56 59 61 68 73 72 71 73 71 65 57 51 53 59 64 68 63 52 36 26 22 18 16 15 12 10 10 11 12 12 13 13 14 14 14 15 15 15 15 15 15 16 16 16 15 15 15 14 14 14 14 14 13 13 12 12 12 12 13 14 15 14 13 13 12
44 44 44 43 43 42 40 38 37 36 35 34 30 26 22 21 20 22 26 33 40 46 51 57 61 63 66 68 67 69 72 69 60 47 34 30 35 43 50 52 46 38 32 28 23 19 16 13 11 11 12 13 14 14 14 14 14 14 13 13 14 14 14 14 14 14 13 13 13 13 12 12 12 13 13 12 11 11 11 12 13 14 15 14 13 13 12 11
47 46 46 44 44 43 43 42 40 38 36 34 31 26 21 20 22 26 33 40 44 47 49 53 57 60 60 60 63 68 69 64 55 44 32 28 29 29 32 35 36 37 35 31 27 24 20 18 17 16 16 16 15 14 14 14 14 14 14 14 14 14 13 13 12 12 12 12 12 12 11 11 11 12 12 11 11 11 12 13 13 14 14 13 12 12 11 11
48 48 47 47 47 46 46 45 44 42 38 34 30 25 21 21 25 30 37 42 44 45 46 48 51 52 50 50 54 59 59 57 51 45 39 37 35 31 28 26 27 29 30 29 27 24 22 20 17 16 16 15 14 14 14 14 15 15 15 14 13 13 13 12 12 11 11 11 11 11 11 11 11 11 11 12 12 12 12 13 13 13 12 11 11 11 11 11
49 50 50 49 49 48 48 47 46 43 37 30 25 23 22 23 29 35 38 40 40 40 41 42 42 38 34 31 33 37 42 45 44 42 40 39 39 39 35 31 29 27 25 24 21 19 18 16 13 13 14 13 13 13 13 14 14 14 13 13 13 12 12 12 12 11 12 11 11 11 11 12 12 11 12 13 13 12 12 12 11 11 11 11 11 11 11 11
51 52 52 51 50 49 48 47 47 44 36 26 21 22 23 24 31 38 40 40 38 36 34 33 31 27 23 20 18 18 23 28 31 32 31 31 31 30 30 31 32 31 27 23 19 16 14 12 11 12 13 12 12 12 12 12 12 12 12 12 12 12 12 12 12 12 11 11 11 12 12 13 12 11 12 13 12 12 11 11 11 11 11 11 11 12 13 13
53 54 53 52 50 49 48 47 47 43 34 23 18 21 24 25 32 39 40 41 40 37 33 29 26 23 22 20 17 15 16 18 20 21 21 22 23 22 21 21 24 27 27 25 21 16 13 12 12 12 13 12 11 11 11 11 12 12 12 12 12 12 12 12 12 12 11 11 11 12 13 13 12 11 12 12 11 11 11 11 12 12 13 13 14 14 14 14
55 55 54 52 50 49 48 47 45 39 30 21 17 19 24 28 32 37 39 39 37 35 33 30 28 27 26 25 22 20 19 18 18 18 18 19 20 21 20 19 18 18 19 19 18 16 14 13 13 13 12 12 12 12 12 12 12 13 13 12 12 12 12 12 12 12 12 12 12 12 13 12 11 11 11 11 12 12 13 13 14 15 15 15 15 15 15 16
56 55 53 52 51 50 48 47 41 33 24 19 16 19 28 35 35 34 32 29 28 25 23 22 23 26 27 26 25 23 21 19 17 16 15 14 14 16 17 17 17 17 16 15 14 13 13 13 13 13 13 13 14 13 13 13 14 14 14 13 13 12 12 12 12 12 12 12 12 12 12 12 11 11 11 12 14 14 15 16 17 17 17 17 17 17 17 16
57 56 54 52 51 50 49 45 36 27 19 15 16 22 34 44 49 45 32 22 20 18 15 14 15 16 19 21 21 19 16 14 12 11 10 10 11 12 13 14 15 16 16 15 14 13 13 14 14 14 14 14 15 15 14 14 14 14 14 13 13 13 13 13 12 12 12 12 12 12 13 13 12 12 13 14 16 16 16 18 19 19 19 19 19 19 19 20
57 57 55 53 51 51 48 38 28 20 14 12 19 32 44 54 63 63 46 29 23 19 16 15 13 12 13 14 14 13 12 10 9 8 8 8 10 11 12 13 14 14 15 15 15 15 15 15 15 15 15 15 15 15 15 15 14 14 14 14 13 13 13 12 12 12 12 12 13 14 15 15 15 14 14 15 17 17 18 19 19 20 21 21 22 22 22 24
58 57 56 55 53 50 40 28 19 13 12 18 30 44 53 60 66 65 51 36 28 24 20 17 14 13 13 12 12 11 10 9 8 8 8 9 10 10 11 12 13 13 14 14 15 16 16 16 16 16 16 16 16 16 15 15 14 14 14 13 13 12 12 12 12 13 13 14 15 16 16 17 17 17 16 16 17 18 19 20 21 23 24 24 24 24 26 29
58 58 57 56 52 43 30 19 12 10 17 29 40 50 56 58 57 52 44 34 27 25 23 18 15 14 11 10 10 9 8 7 7 8 9 10 10 11 11 12 13 13 13 14 15 15 15 16 16 16 16 16 16 15 15 14 13 13 13 12 13 13 13 14 14 15 15 15 17 17 17 18 19 19 19 18 18 20 21 23 25 26 27 28 29 31 34 36
59 59 56 53 45 31 19 11 10 17 31 41 48 52 53 49 44 41 38 31 23 21 19 16 14 11 8 7 7 7 7 7 7 8 9 10 11 12 12 13 13 14 14 14 15 16 16 16 16 15 15 14 14 13 13 13 13 13 13 14 14 15 15 16 16 16 17 17 19 19 18 19 20 19 21 21 22 24 25 27 29 31 33 34 33 35 40 46
60 58 54 46 32 19 11 10 15 27 42 52 56 56 50 44 42 42 39 31 24 21 17 14 11 8 7 6 6 6 6 7 7 8 10 11 12 12 13 13 13 14 14 14 15 15 14 14 13 13 12 12 12 13 13 14 14 15 15 16 16 17 17 17 18 18 18 18 19 19 20 22 22 21 23 24 25 28 31 33 35 38 40 38 36 41 47 52
61 56 47 34 19 10 8 12 21 34 49 62 68 68 63 56 54 52 46 38 32 27 23 20 15 10 7 6 6 6 7 8 8 10 11 12 12 13 13 13 13 13 13 13 13 12 12 12 12 12 13 14 14 15 16 16 16 16 17 17 18 19 18 18 19 19 19 20 19 21 23 25 25 25 26 28 29 31 34 38 42 45 43 38 37 41 46 51
60 50 36 20 10 7 8 16 31 47 62 72 76 77 73 67 63 59 53 47 40 33 30 24 16 10 7 6 7 7 8 9 10 11 12 12 12 12 12 12 12 12 11 11 11 11 11 12 13 15 16 17 18 18 18 18 18 18 19 19 19 19 19 19 19 19 20 20 21 25 28 30 31 31 31 32 32 33 37 41 42 40 36 35 41 51 63 74
56 38 20 10 8 8 12 25 45 60 71 77 75 72 68 63 58 54 50 45 38 33 27 19 11 8 7 8 9 10 11 12 12 12 12 12 12 11 11 11 11 11 10 11 11 12 14 15 16 17 18 19 19 19 19 19 19 20 20 21 21 20 20 19 18 20 22 23 26 31 35 37 37 36 36 36 35 35 36 35 35 40 49 61 74 85 93 98
40 20 9 10 12 13 18 34 51 63 68 67 62 57 52 48 43 39 36 33 28 24 17 11 9 9 10 11 12 12 12 12 11 11 11 11 11 11 11 10 11 11 11 12 13 14 15 17 18 18 19 19 20 20 20 21 21 21 21 21 21 21 20 21 21 22 24 26 30 35 40 42 40 37 34 31 30 33 38 47 60 74 86 95 99 101 101 100
18 10 10 14 19 24 31 41 50 54 54 51 47 43 37 32 28 25 23 20 17 14 11 10 11 12 12 12 12 12 11 11 11 11 11 11 11 11 12 12 13 13 14 15 16 16 17 18 19 20 21 21 22 22 22 23 23 22 22 21 22 23 23 25 26 26 26 28 32 37 38 36 33 28 25 29 40 55 70 84 95 100 101 101 100 99 98 99
9 12 18 23 28 35 39 42 45 46 44 40 34 27 20 16 15 14 13 12 11 11 11 12 12 12 12 12 11 11 11 11 11 11 12 12 12 13 13 14 15 16 17 17 17 17 17 19 21 23 24 24 24 24 25 25 24 23 23 24 25 26 27 29 30 30 28 27 28 30 29 32 38 40 44 58 77 90 98 102 101 100 100 100 100 99 98 95
15 21 26 30 34 38 40 41 42 38 31 23 16 10 8 8 9 9 10 10 11 12 12 12 12 11 12 11 11 12 11 12 12 13 14 14 15 16 16 16 17 17 18 18 19 19 19 21 25 27 27 27 26 25 25 24 24 26 27 28 29 29 29 29 27 25 24 26 34 41 46 56 65 68 73 88 100 102 101 100 100 101 101 100 97 90 80 69
26 28 31 34 37 40 40 36 29 20 13 8 6 6 7 8 10 10 11 12 12 12 12 12 12 12 12 12 12 12 13 13 14 15 16 16 17 17 17 18 19 19 21 22 23 24 23 24 27 28 27 26 24 24 24 25 25 28 30 29 28 26 23 23 25 31 38 48 60 70 74 77 82 86 91 99 101 100 100 101 101 99 92 83 69 54 42 33
30 31 34 37 39 37 29 19 11 7 6 7 8 9 9 10 11 11 12 12 12 12 12 12 12 12 12 12 13 14 14 16 17 18 18 19 19 20 21 22 23 24 26 26 27 27 26 25 25 26 24 23 23 24 25 26 27 26 25 22 20 23 28 36 46 54 62 69 78 86 89 89 94 99 100 101 101 101 100 96 86 73 57 43 31 24 22 23
32 36 38 35 32 24 14 7 6 7 8 9 10 10 11 11 12 12 12 12 12 12 11 12 12 12 13 13 15 16 17 19 20 21 22 23 25 26 26 27 27 27 26 26 24 23 22 21 22 25 25 24 25 25 24 23 20 18 18 22 31 42 50 56 61 67 76 84 91 97 99 97 100 103 103 102 98 89 76 61 47 35 26 22 21 23 27 30
39 39 32 25 19 12 7 7 9 10 10 11 11 11 12 12 12 12 12 11 11 11 11 12 13 15 16 18 20 22 24 25 27 28 29 29 28 27 26 24 23 22 21 20 20 20 21 21 23 26 25 23 21 18 16 15 16 22 33 44 52 57 60 65 71 81 92 98 100 101 100 96 99 101 95 83 68 51 38 29 24 23 24 26 30 34 36 36
38 29 20 15 11 7 7 9 10 11 11 11 11 11 11 11 11 11 10 11 12 13 15 17 19 21 23 26 28 29 29 29 28 27 26 24 22 20 18 17 17 17 18 20 20 20 20 19 19 19 17 15 15 17 21 27 35 44 50 54 57 63 72 82 90 97 101 103 102 102 98 90 84 76 61 47 35 27 23 23 25 30 35 38 41 41 37 31
22 16 11 9 8 7 9 10 10 11 11 11 11 10 10 10 10 11 13 15 17 19 22 25 26 28 29 29 27 24 21 20 18 18 16 15 14 13 14 14 15 16 16 16 16 15 15 14 14 14 16 20 26 34 40 44 47 48 52 61 72 84 93 97 99 100 100 99 96 89 78 64 53 42 33 28 25 24 27 32 37 42 44 44 41 35 27 21
11 9 8 8 9 9 10 10 10 10 10 10 10 10 10 11 13 16 19 21 24 26 28 29 30 30 27 22 17 14 14 15 15 15 13 13 12 12 13 13 12 12 12 12 13 13 14 16 19 24 31 38 41 43 43 44 48 53 64 81 93 99 99 96 94 92 86 78 68 56 44 35 30 27 26 27 29 34 38 41 41 38 34 31 26 21 17 15
8 8 8 9 10 9 10 10 9 9 9 10 11 12 14 17 20 23 25 27 28 29 30 31 30 25 18 14 13 15 16 16 16 14 13 13 12 12 11 11 11 12 13 15 18 20 24 29 35 40 42 41 39 38 42 54 67 76 83 92 96 95 92 86 80 72 60 48 38 32 27 24 25 28 31 35 40 41 38 31 25 22 20 18 16 15 15 15
9 9 9 9 9 9 9 9 9 10 11 12 15 18 21 24 26 28 28 29 29 30 31 29 22 15 13 15 17 18 18 16 14 12 11 11 11 11 12 13 14 16 20 24 27 31 36 39 40 40 38 38 43 53 64 75 84 88 89 89 87 82 77 70 61 49 38 31 26 25 26 27 33 40 44 46 43 36 28 21 17 16 16 15 16 16 16 16
10 10 10 9 9 9 9 10 11 13 15 18 22 25 27 28 28 28 29 29 31 30 26 19 13 12 16 19 19 18 16 13 11 10 10 12 14 16 18 19 22 25 28 31 32 33 35 35 38 45 51 56 66 78 84 86 87 85 83 78 72 66 59 51 42 34 29 27 26 29 36 44 51 56 54 46 35 26 21 18 17 17 17 18 18 18 18 18
9 9 9 9 10 11 12 14 16 20 23 26 28 29 28 28 28 29 31 31 28 22 16 11 12 15 18 19 17 15 11 10 11 13 14 16 19 23 25 28 29 30 30 30 30 32 38 47 58 70 74 75 81 86 85 83 80 75 70 63 56 51 44 37 31 27 28 31 37 47 56 60 58 50 39 29 23 20 19 19 19 19 19 19 19 19 20 20
9 10 10 11 13 15 18 21 24 27 29 29 29 28 29 30 31 31 29 25 18 11 10 12 14 16 16 14 13 11 11 13 15 17 18 21 24 26 28 28 28 28 30 35 41 49 59 69 78 83 82 81 82 81 77 73 68 62 56 49 43 39 34 31 30 32 39 48 57 61 57 48 38 29 22 20 20 21 21 21 21 21 21 21 21 21 21 21
11 11 13 16 19 22 25 27 29 30 30 30 30 31 31 30 28 24 18 13 9 9 11 12 13 13 12 12 12 12 14 17 20 21 22 24 24 25 26 28 32 39 47 55 63 68 73 78 82 82 79 76 74 70 65 61 56 50 44 39 36 34 33 35 41 50 59 61 57 48 37 28 24 22 22 22 22 22 22 22 22 22 22 23 22 22 23 23
15 17 20 23 26 27 28 29 29 30 30 29 28 27 24 20 16 12 8 7 8 10 10 11 11 11 12 13 15 16 18 21 22 22 22 23 26 30 36 44 52 60 65 69 72 74 75 77 79 77 71 67 64 60 55 52 48 42 37 34 35 37 43 52 62 67 63 53 42 33 27 24 23 23 23 23 24 24 24 24 24 23 23 24 24 24 24 24
22 25 25 26 26 26 25 24 23 22 21 19 17 14 12 9 8 7 7 9 9 9 10 11 12 13 14 17 18 18 19 20 21 24 28 35 42 50 57 63 66 69 69 69 71 73 72 72 72 69 64 60 57 53 50 46 42 37 36 39 45 53 63 69 69 62 49 37 31 27 25 25 25 25 25 25 25 25 25 25 24 24 25 25 26 27 27 27
Wind_Speed
11 12 12 13 13 13 13 13 14 14 14 14 14 14 13 13 13 13 14 14 13 13 13 14 14 15 15 14 14 14 16 17 18 19 19 20 21 21 21 20 20 19 19 18 18 18 18 18 18 17 17 18 19 18 19 19 19 20 21 20 21 23 22 20 21 21 22 22 21 20 20 22 23 23 23 23 24 25 25 25 26 25 26 28 29 29 30 30
12 12 13 13 13 13 13 13 13 13 13 12 12 11 11 10 10 11 11 12 12 12 12 13 13 14 13 13 13 14 14 14 15 16 17 18 18 19 19 19 19 18 18 18 18 18 18 18 18 17 17 18 19 19 19 19 20 20 20 20 22 23 22 20 22 21 22 22 21 21 21 22 24 24 23 24 25 26 26 26 25 25 27 28 28 28 28 29
11 11 11 11 11 10 10 11 11 11 11 11 11 10 10 10 10 11 11 12 12 13 13 13 13 14 14 14 14 14 15 14 15 15 16 16 17 18 18 18 18 18 18 18 19 18 19 19 19 18 18 19 19 19 20 20 20 21 20 21 22 23 21 21 22 22 22 22 21 22 22 23 24 25 24 24 25 26 27 27 25 26 28 28 28 28 28 28
9 9 9 9 8 8 8 9 9 10 10 11 11 11 11 11 11 11 12 12 13 13 14 14 14 14 15 15 15 15 15 15 15 16 16 16 16 17 18 18 19 19 19 19 19 19 20 20 20 19 19 19 19 19 19 20 21 21 20 21 22 22 21 21 23 23 23 22 21 22 23 23 24 25 25 25 25 25 27 27 26 27 28 28 28 28 28 29
8 8 8 8 8 8 8 9 9 10 10 10 10 10 11 11 11 11 11 12 12 13 14 14 15 15 15 15 16 16 16 16 16 16 16 16 16 17 18 19 20 20 20 20 21 21 21 21 21 21 20 19 19 19 19 20 21 21 20 21 22 22 22 23 23 23 24 23 22 23 23 23 24 25 25 25 26 26 27 27 27 28 28 28 28 29 29 30
8 8 8 8 8 8 8 8 8 8 8 9 9 9 10 10 10 11 12 12 13 14 14 15 15 15 16 16 16 17 17 16 17 17 17 17 16 17 17 18 19 20 21 21 21 21 21 21 21 21 20 20 19 20 21 21 21 21 21 21 23 23 23 24 23 23 24 24 23 24 24 24 24 24 24 26 27 27 27 28 28 28 29 29 29 30 30 30
7 7 7 7 6 6 6 6 5 6 6 7 8 8 9 10 11 12 13 14 14 15 16 16 16 16 16 16 17 18 18 18 18 18 18 18 17 17 17 18 19 19 20 21 21 21 21 21 21 21 21 20 20 20 21 21 21 21 22 22 23 23 24 24 24 23 24 24 25 24 25 25 26 24 24 26 27 27 28 29 29 29 29 30 30 30 30 30
5 4 4 4 3 3 3 4 4 5 6 7 8 9 10 11 12 13 15 16 16 17 18 18 18 18 18 18 18 18 18 18 19 19 19 19 18 18 18 18 19 20 20 21 21 21 22 21 21 21 21 20 20 20 21 21 21 22 23 23 23 24 24 25 25 24 24 24 25 25 25 26 26 25 25 27 27 27 29 30 30 30 31 31 31 31 31 31
2 2 2 2 2 2 3 4 4 5 6 7 9 10 11 12 13 15 16 17 18 19 19 19 19 19 19 18 19 18 18 19 19 19 19 19 20 20 19 19 20 21 21 21 22 22 22 21 21 21 21 20 20 21 21 21 22 22 23 24 24 25 25 26 26 25 24 24 25 25 26 27 26 25 25 29 28 28 30 31 31 31 32 33 33 34 34 34
1 2 2 2 2 3 3 4 5 6 7 8 9 10 12 13 14 16 17 18 19 20 20 20 20 20 19 18 18 17 18 18 18 18 19 19 20 20 21 21 21 22 22 23 22 22 22 21 20 20 21 21 21 22 22 22 23 23 23 24 24 25 25 25 25 26 25 24 25 25 26 27 26 26 27 29 30 29 31 32 32 33 33 34 35 36 36 37
2 2 2 2 3 3 4 5 6 7 8 9 10 12 13 14 15 16 18 18 19 20 20 20 20 19 18 18 18 17 18 18 18 18 18 18 19 20 21 22 22 23 23 23 23 22 22 21 20 20 21 21 22 23 23 24 24 25 25 24 24 25 25 24 24 26 26 25 25 26 27 27 27 28 29 30 31 31 32 34 34 34 35 35 35 36 37 39
2 2 2 2 3 4 5 6 7 8 9 11 12 13 14 16 17 18 19 19 19 19 19 19 19 19 18 17 17 18 18 18 18 18 18 18 19 20 21 22 22 23 23 24 23 22 22 22 21 21 21 22 22 23 23 24 24 25 26 25 26 26 25 25 24 25 26 27 27 28 28 26 27 30 31 31 32 33 34 35 36 36 36 37 37 37 38 40
2 2 2 3 4 6 7 8 9 10 11 12 14 15 16 17 18 19 19 19 19 18 18 18 18 18 17 17 17 18 19 19 19 19 19 19 20 20 21 22 22 23 23 23 23 23 23 23 23 23 22 22 22 23 23 23 24 24 25 25 26 26 26 26 26 26 27 28 29 30 30 26 26 31 33 33 34 35 36 37 37 37 38 39 38 37 38 41
2 3 4 5 6 8 9 10 11 12 13 14 15 16 18 19 19 19 19 19 18 18 18 17 17 18 18 17 18 19 19 19 19 19 20 20 20 21 21 22 23 23 23 23 23 23 23 24 23 23 23 22 22 23 23 23 24 24 25 25 26 26 26 27 27 27 28 30 31 32 32 27 25 31 35 36 36 38 39 38 38 38 38 39 39 38 39 41
3 4 5 7 8 9 10 11 12 13 14 15 16 18 19 19 19 19 18 18 18 18 17 17 17 17 18 19 19 19 19 18 18 18 19 19 20 21 21 22 22 22 22 22 23 23 23 24 23 23 22 22 23 23 23 24 24 25 25 25 26 27 27 27 28 29 30 32 32 33 33 29 26 30 35 37 39 40 40 38 38 38 39 40 39 39 40 42
5 6 7 9 10 11 12 13 13 14 15 16 18 18 19 20 19 18 18 17 17 17 16 16 17 17 18 18 19 19 19 18 18 17 16 17 17 18 20 21 20 21 21 22 22 23 23 23 23 23 22 23 23 24 24 24 24 25 26 26 27 27 28 28 28 30 32 33 32 33 34 32 30 32 34 37 41 41 40 39 39 39 39 39 39 40 41 41
7 8 9 10 11 12 13 14 15 16 17 18 19 19 19 19 19 18 17 16 16 16 16 15 16 16 17 17 18 18 17 17 17 16 14 15 16 16 17 18 19 20 21 22 22 22 22 22 23 22 23 24 25 25 26 25 24 25 26 26 27 27 28 28 29 31 32 33 33 33 34 33 33 34 34 37 40 41 40 40 40 40 39 39 39 40 41 41
8 9 11 12 13 14 15 15 16 17 18 18 19 20 19 19 18 17 16 16 15 15 15 15 15 15 15 15 15 15 15 15 16 16 15 15 15 16 16 17 18 20 21 22 22 22 22 22 23 23 24 25 26 27 27 26 26 26 26 27 27 28 29 29 31 32 33 33 33 34 35 35 35 35 35 37 39 40 40 41 41 40 39 39 39 40 41 42
10 11 12 13 14 15 16 16 17 17 18 19 20 20 19 18 17 16 14 14 14 14 14 14 14 13 13 14 13 13 13 14 16 16 15 16 16 17 17 17 18 19 20 21 21 22 23 24 24 24 26 26 27 28 28 27 27 27 28 29 29 30 30 31 33 34 34 34 34 34 35 35 35 35 36 37 38 39 40 40 41 41 41 41 41 42 43 43
11 12 13 14 14 15 16 17 17 18 18 19 19 19 17 16 15 15 14 13 12 13 13 13 12 12 12 13 12 12 13 13 15 15 15 16 17 17 17 18 19 20 20 21 22 22 24 24 24 26 27 27 28 28 28 29 29 29 30 30 31 32 31 32 34 34 34 35 35 35 36 36 36 36 36 37 38 39 39 40 41 41 42 43 43 44 44 45
13 13 14 15 15 16 17 17 17 18 19 20 19 17 15 14 13 13 14 13 12 11 11 11 12 12 12 13 12 12 12 13 14 14 14 16 17 17 18 18 19 20 21 21 22 23 23 23 24 26 26 26 28 28 28 29 30 30 31 32 32 33 33 33 34 34 34 35 35 35 37 38 37 37 37 38 39 39 40 41 41 42 43 44 45 45 46 47
14 15 15 16 16 17 17 18 18 19 20 20 18 16 14 13 11 11 12 13 13 11 11 11 12 12 12 13 13 13 13 13 14 14 15 16 17 18 18 19 19 20 22 23 23 23 23 23 23 25 25 26 27 28 28 29 30 31 32 33 32 33 34 34 33 34 34 34 35 36 37 39 38 38 39 39 40 40 41 42 43 43 45 46 46 47 48 49
15 16 16 17 17 18 18 19 20 21 21 19 17 15 13 11 10 10 11 12 13 12 12 13 13 13 13 13 13 14 13 14 15 15 16 17 17 18 19 19 20 21 22 23 23 23 22 22 24 24 25 25 26 27 28 29 30 31 32 32 32 33 34 34 34 34 34 35 35 36 38 39 38 39 40 41 42 42 43 44 45 46 47 47 47 48 48 49
17 17 18 18 18 19 19 20 21 22 21 19 17 15 12 10 10 10 11 12 12 12 13 14 14 13 13 13 13 13 13 14 16 17 17 17 17 18 18 18 19 20 21 22 22 22 21 22 23 24 25 25 26 27 28 29 29 30 31 32 33 33 34 34 35 35 35 36 36 37 39 40 40 41 42 43 44 45 45 46 46 46 46 46 47 47 48 49
17 18 19 19 19 19 21 22 22 22 20 18 16 14 11 10 10 10 11 12 13 13 14 14 13 13 13 13 13 13 14 15 16 16 17 17 17 18 17 17 18 19 19 20 20 20 20 22 23 24 25 25 26 27 28 29 29 30 32 33 33 33 34 34 35 35 36 36 37 38 40 42 43 43 44 45 46 47 47 46 46 46 45 45 46 47 48 48
18 18 19 20 21 21 22 23 22 21 19 17 14 12 11 9 10 11 11 12 14 14 14 13 13 13 14 14 14 15 15 15 16 17 17 17 18 18 18 18 18 18 19 19 19 19 20 22 23 24 25 25 27 28 28 29 30 31 32 33 33 34 34 35 35 36 37 38 39 40 42 44 45 46 47 47 47 47 46 46 45 45 45 46 47 47 48 47
18 19 20 21 22 23 23 23 21 19 17 14 12 11 10 10 10 11 12 12 13 14 14 14 14 15 15 16 15 16 16 16 17 17 18 18 18 18 19 18 19 19 19 19 20 21 21 22 23 24 25 26 27 28 29 30 31 31 32 33 33 34 35 36 36 38 39 40 41 43 44 46 47 47 47 47 47 46 46 45 45 45 46 47 48 48 48 47
19 20 20 21 23 24 23 21 19 16 13 12 11 10 10 10 10 11 12 12 12 13 14 14 15 16 16 16 16 16 16 17 18 18 18 19 19 19 19 19 19 20 20 20 21 22 22 23 24 25 26 27 28 28 29 30 31 32 32 33 34 35 36 37 38 40 41 42 43 45 46 46 46 46 45 45 46 46 46 46 46 46 47 47 47 47 47 46
20 21 21 22 23 24 22 19 17 14 11 10 10 10 10 10 11 11 12 12 12 13 14 16 16 16 16 16 16 16 17 18 18 19 19 19 19 20 20 20 20 21 21 22 22 23 23 23 24 26 27 27 28 29 29 30 31 32 33 34 36 37 38 39 41 42 43 44 44 45 45 45 44 45 44 44 45 45 46 46 46 47 47 47 46 46 46 46
21 21 22 24 23 22 19 16 14 11 9 9 9 9 10 10 11 11 11 12 13 13 15 16 16 16 16 17 17 17 18 18 19 19 19 20 20 20 21 21 21 22 23 23 24 24 24 25 25 26 27 27 28 29 30 31 33 34 35 36 38 39 41 42 43 43 44 44 45 44 44 43 44 45 45 45 45 45 45 45 46 46 46 46 46 46 46 46
22 22 23 24 22 19 16 14 12 10 8 8 8 9 9 10 11 12 12 13 14 15 15 16 17 17 17 17 18 18 19 19 20 20 20 20 21 21 22 22 23 23 24 24 25 25 25 26 26 26 27 28 29 30 32 33 35 36 38 39 40 42 43 43 43 44 44 44 44 44 43 43 44 45 45 45 46 46 45 45 45 45 46 46 46 46 46 46
23 23 23 22 19 17 14 11 10 8 7 7 8 9 10 11 13 14 15 15 16 16 17 18 18 18 18 18 18 19 19 20 20 20 21 21 22 23 23 24 24 24 25 25 25 26 26 27 27 28 28 29 31 32 34 36 38 39 40 41 43 43 44 44 44 44 43 43 43 43 43 43 44 44 45 45 46 46 46 45 46 46 46 46 45 45 45 47
24 23 21 19 16 13 11 9 8 7 7 8 9 11 12 13 14 15 17 17 18 17 17 18 18 18 18 18 19 19 20 20 21 21 22 22 23 23 24 24 25 25 26 26 26 26 27 28 29 30 31 32 34 35 37 39 40 41 42 43 43 44 44 44 44 44 43 43 42 42 42 42 42 43 43 44 45 45 45 45 46 46 46 45 45 46 47 48
23 21 18 15 13 11 9 8 7 8 9 10 11 13 13 14 15 16 16 17 18 18 18 18 18 18 18 19 20 20 21 21 22 23 23 24 25 25 25 25 26 26 27 27 28 28 28 29 31 32 34 35 37 39 40 41 42 43 43 43 43 44 44 44 44 43 42 42 41 40 41 41 41 43 43 44 44 43 43 44 45 45 46 47 47 48 48 48
19 16 14 12 10 9 8 7 8 9 10 11 12 12 13 14 14 14 15 16 17 18 18 18 18 19 20 20 21 21 22 23 23 24 25 25 26 27 27 27 28 28 28 29 30 30 31 32 33 35 37 39 40 41 42 42 43 43 43 43 43 42 42 42 41 41 41 40 40 39 40 41 41 43 44 43 42 42 43 44 45 46 47 47 47 47 47 46
15 12 11 9 8 7 7 7 8 9 10 11 12 13 13 14 14 14 15 15 16 17 18 19 19 20 20 21 23 23 24 24 25 25 26 26 27 28 28 29 29 30 30 31 32 33 34 35 37 38 40 41 42 42 43 42 42 42 42 41 41 40 40 39 38 38 38 39 38 39 40 41 41 43 44 43 43 44 44 45 46 46 45 45 45 45 46 47
11 9 8 7 7 7 7 8 8 9 11 12 13 14 14 14 14 15 15 16 17 17 18 19 20 21 22 23 24 25 26 26 26 27 27 28 28 29 29 30 31 32 33 34 35 36 37 38 39 41 42 42 42 43 43 42 41 41 40 39 39 38 37 36 36 36 37 37 38 39 40 41 43 44 45 44 44 44 44 44 44 43 42 42 43 45 48 50
8 7 7 7 7 7 8 8 10 11 12 13 13 14 14 14 15 16 17 17 18 19 20 21 22 23 24 24 25 26 27 27 28 28 29 29 30 31 32 33 34 35 36 37 39 40 40 40 40 41 42 42 42 42 41 41 39 38 37 36 36 36 35 35 35 36 37 38 38 39 41 43 45 46 45 44 44 44 43 42 42 41 42 43 45 47 49 52
7 6 7 7 7 8 9 10 11 12 13 13 13 14 14 15 16 17 18 19 20 21 22 23 24 25 26 26 27 27 28 28 29 30 31 32 33 34 35 37 37 38 39 40 41 42 42 42 40 40 41 41 40 39 38 37 36 36 35 34 34 33 34 34 35 37 38 39 40 41 43 44 45 45 44 43 42 42 42 42 42 43 45 46 47 49 51 53
7 6 7 8 8 9 10 11 12 12 13 13 14 15 16 17 18 19 20 21 22 23 24 25 25 26 27 28 29 30 31 31 32 33 34 35 36 37 38 39 40 40 41 41 41 41 41 40 38 37 37 37 36 36 35 35 35 34 34 33 33 33 35 36 37 38 39 40 41 42 43 44 44 43 42 41 41 41 42 42 43 45 47 48 50 53 55 57
7 7 8 9 10 11 11 11 12 13 13 14 15 17 17 18 20 21 22 23 23 24 25 26 27 28 29 31 32 33 34 35 36 37 38 38 39 39 39 40 39 39 39 38 37 37 36 35 34 32 33 33 33 34 34 34 34 33 33 33 34 35 37 39 40 40 40 40 40 41 42 44 42 41 41 41 41 42 42 43 45 47 49 51 53 55 57 59
7 9 10 10 11 11 11 12 13 14 15 16 17 19 20 21 22 22 22 23 24 25 26 28 29 31 32 34 35 37 38 39 39 39 39 38 37 37 36 35 34 34 33 33 32 32 32 32 31 31 31 32 32 32 33 33 34 34 35 36 37 38 39 40 41 41 40 39 39 40 41 42 41 41 42 42 42 43 45 47 48 50 52 54 55 57 58 60
9 10 10 11 11 12 12 14 15 16 17 18 19 20 21 21 22 22 23 24 26 27 28 30 32 33 35 38 40 40 40 38 36 34 33 32 31 30 30 29 29 30 30 30 30 30 31 31 30 30 30 31 33 33 34 34 35 36 37 38 38 39 39 40 40 40 40 39 38 39 40 40 40 41 42 42 44 46 48 50 51 53 55 56 58 59 60 63
10 11 11 11 12 13 14 16 17 18 19 19 19 20 20 21 22 24 25 26 28 29 30 32 34 37 39 40 38 36 32 30 29 28 28 28 28 28 28 28 29 29 29 29 30 30 30 31 31 30 31 32 33 35 36 36 37 38 39 38 37 37 38 39 39 39 38 37 37 38 39 39 39 40 42 44 46 48 50 51 53 54 56 57 59 61 63 65
11 12 12 12 13 15 16 18 18 19 19 19 19 20 22 23 24 26 27 28 29 31 33 35 38 39 38 35 31 29 27 28 28 28 29 29 29 28 28 29 28 28 29 29 29 30 30 31 32 33 34 35 36 37 37 37 38 38 38 37 36 36 37 38 38 38 37 36 36 38 39 40 41 42 44 46 47 48 49 50 52 54 57 58 61 63 66 68
12 13 14 14 16 17 17 18 18 18 19 20 22 23 24 25 26 27 28 30 32 34 36 38 38 36 32 29 28 28 28 29 29 30 29 29 29 28 28 28 28 28 29 29 30 31 31 33 34 35 37 38 38 38 38 38 38 38 37 37 36 36 36 37 37 37 36 36 37 39 40 41 43 44 45 46 47 48 49 51 54 56 59 61 64 66 68 70
13 14 15 16 17 17 17 17 18 20 21 23 24 25 25 27 28 29 31 33 35 37 38 37 34 30 28 27 28 29 29 29 29 29 28 27 27 27 28 28 29 29 30 31 32 33 33 34 35 36 38 38 38 38 38 38 37 37 37 36 36 36 37 37 37 36 37 37 38 39 41 43 45 47 48 49 50 51 53 55 58 60 62 64 66 68 71 73
14 15 15 16 17 17 18 20 21 22 24 24 25 26 27 28 30 31 33 35 37 37 36 33 29 27 27 28 28 29 29 28 27 27 26 27 27 28 29 29 30 31 32 33 34 34 34 35 35 36 38 38 38 37 37 37 37 36 35 34 36 37 37 37 37 37 38 39 41 42 44 46 47 48 49 51 53 54 56 59 61 63 65 67 69 71 73 75
14 15 16 17 18 20 21 22 23 24 25 26 27 28 29 30 32 34 35 36 36 34 31 28 27 27 28 28 28 28 28 27 26 26 26 27 28 29 30 31 32 33 33 34 34 34 34 35 35 35 37 37 37 37 36 36 35 35 34 35 36 36 37 37 38 39 41 42 44 45 46 47 48 49 51 53 55 57 59 62 64 66 67 69 72 74 75 77
16 17 19 20 21 22 23 24 25 25 27 28 29 30 31 33 34 35 35 34 32 29 28 27 27 27 27 28 28 28 28 28 28 28 29 30 30 31 32 33 33 34 34 34 34 34 34 35 35 35 37 36 36 36 35 35 35 35 35 35 36 36 38 39 41 42 42 43 43 44 45 47 48 50 52 55 58 60 62 64 66 68 70 71 73 75 77 79
19 20 21 22 23 24 25 26 27 28 29 30 30 31 32 33 33 32 31 29 28 27 27 27 27 27 27 28 28 29 29 30 31 31 32 32 33 33 33 34 34 34 34 35 35 35 35 35 35 35 36 35 35 35 35 35 35 35 34 35 36 38 40 41 41 42 42 43 44 45 47 48 50 51 54 56 60 62 64 67 68 70 72 74 76 77 79 81
22 22 23 25 25 26 27 28 29 29 30 30 31 31 31 30 29 28 27 26 26 26 26 27 27 27 28 29 30 30 31 31 32 33 33 34 34 34 34 34 34 34 35 35 35 35 36 35 35 35 35 35 35 35 35 35 35 34 35 36 38 39 40 41 42 42 42 44 46 48 49 51 52 54 56 58 61 64 67 70 72 73 74 76 78 80 82 84
Wind_Direction
254 258 264 270 272 273 274 276 276 276 276 276 276 276 276 275 275 274 273 272 272 273 274 277 278 277 277 279 282 285 285 281 276 273 270 268 266 263 262 261 262 264 266 267 268 270 271 272 272 270 269 269 269 267 267 267 267 266 266 266 266 267 270 272 272 272 274 275 277 279 278 279 279 279 279 279 279 278 278 277 279 283 283 282 284 285 285 284
260 265 269 271 273 274 276 277 278 278 278 278 277 276 276 276 275 273 271 271 271 274 277 281 282 280 278 279 280 284 287 287 283 278 275 273 270 266 262 261 261 262 264 265 266 267 269 270 270 269 266 266 267 267 266 267 266 266 266 265 265 266 268 270 270 271 273 275 278 280 279 279 279 279 278 277 278 279 279 279 282 284 284 285 286 285 284 284
263 267 269 271 273 274 275 277 278 278 278 277 277 281 284 285 284 281 278 278 279 281 283 285 284 282 281 280 281 283 286 288 284 281 279 276 271 267 263 261 261 262 263 264 265 266 267 268 270 268 264 264 264 265 265 266 266 265 265 264 263 265 267 268 268 269 270 272 275 277 278 278 278 279 277 276 277 278 279 281 284 284 285 287 287 287 287 286
267 268 271 274 276 279 280 280 278 277 276 278 283 289 292 293 293 291 290 289 289 289 288 287 284 282 281 281 282 283 284 283 282 281 279 276 273 268 264 261 260 260 262 263 265 267 268 269 270 268 265 264 262 261 262 263 263 264 263 263 263 264 265 265 265 266 268 270 272 273 275 276 277 278 278 277 278 278 279 283 285 285 286 288 289 289 289 289
273 276 279 281 282 282 281 278 275 274 277 282 288 293 295 297 298 299 300 301 300 298 296 293 288 285 283 283 282 283 283 281 281 281 278 276 272 268 264 261 260 260 262 264 266 267 269 270 270 269 267 265 262 261 260 259 262 263 263 263 263 263 262 263 265 268 270 271 272 272 273 274 275 276 278 280 280 280 282 285 286 286 288 289 290 291 291 291
277 280 282 281 280 278 277 275 274 277 282 288 293 297 299 302 306 308 309 308 307 305 303 300 297 294 290 288 285 284 284 282 283 281 278 276 271 267 264 262 261 261 262 264 266 268 269 269 269 268 267 264 261 261 260 259 261 263 263 262 262 263 263 264 267 269 272 274 274 274 275 275 275 276 278 280 281 283 285 285 286 287 288 289 290 291 292 292
276 278 278 278 276 275 275 278 284 291 295 299 303 306 309 313 315 315 314 313 312 310 308 306 304 302 298 294 290 287 285 284 284 282 280 277 273 269 266 263 262 261 263 265 266 267 267 268 267 266 265 263 261 260 261 261 262 263 263 262 263 265 266 267 268 269 272 275 276 277 278 279 279 281 282 281 282 285 286 286 287 288 287 287 288 289 290 290
280 281 281 283 284 287 295 305 310 310 311 313 314 315 318 320 320 319 318 316 314 312 310 308 307 304 301 297 294 291 290 288 286 285 283 281 279 275 271 269 267 266 266 267 267 266 265 265 264 263 263 263 262 262 262 263 264 264 265 265 265 266 267 269 270 270 271 273 275 277 278 279 281 284 285 283 284 287 287 287 288 289 288 287 287 288 288 288
307 312 320 328 329 334 334 331 326 321 320 319 320 320 322 323 322 321 319 316 314 312 310 309 308 305 302 299 297 297 294 291 288 287 285 284 282 280 277 275 273 272 270 270 268 267 265 263 262 261 262 262 262 263 263 263 264 265 266 268 269 268 268 269 271 272 271 272 274 277 278 280 283 285 286 284 285 287 287 287 289 289 290 289 290 291 290 290
21 17 14 7 357 351 343 335 328 324 324 322 323 323 323 324 323 321 319 317 315 313 311 310 308 305 303 301 300 300 295 292 291 290 288 285 282 280 279 277 275 274 273 271 269 268 265 263 260 259 259 260 261 262 263 264 264 266 267 268 270 270 271 271 272 273 273 274 275 277 279 281 284 286 285 284 286 287 287 288 289 289 290 291 292 293 293 292
53 41 27 14 1 351 338 332 328 327 327 326 326 324 324 323 322 321 319 318 316 314 313 310 309 307 303 303 303 301 296 295 295 293 290 286 282 278 276 275 274 273 272 270 269 267 265 263 260 259 258 259 260 262 264 266 266 267 268 269 270 271 272 273 274 275 276 277 277 278 278 282 286 286 284 284 285 286 288 289 289 289 290 290 291 292 293 292
51 41 27 9 354 344 335 331 329 328 328 327 326 325 324 323 322 321 319 317 316 314 313 310 308 306 305 305 303 300 298 297 294 291 288 283 279 275 272 272 272 271 270 269 268 267 265 263 261 260 260 260 262 263 265 266 267 269 269 269 270 270 271 272 273 275 277 278 279 278 278 283 287 286 285 286 286 286 287 287 288 290 291 291 291 291 292 290
43 28 7 352 343 338 333 331 330 328 328 326 326 325 325 324 321 319 317 315 314 313 313 310 306 304 303 302 299 298 298 295 290 285 281 278 275 273 271 270 270 270 269 269 268 267 266 265 264 264 263 263 264 265 265 267 267 268 268 268 269 269 270 272 273 274 276 277 277 277 277 282 287 286 287 287 286 286 286 286 288 290 291 291 291 291 291 288
13 353 341 337 334 332 330 330 330 328 327 325 325 324 322 320 317 315 313 312 313 313 312 309 305 302 300 299 296 295 295 292 288 283 277 274 273 273 272 272 271 269 269 268 268 267 267 267 267 267 267 266 266 266 267 268 268 268 268 268 269 269 271 273 275 276 276 275 276 277 278 282 285 284 285 285 284 284 284 286 288 289 290 290 290 290 288 286
337 330 327 328 327 327 328 328 328 326 324 323 322 320 317 314 313 312 311 311 313 312 310 307 304 301 299 296 295 294 293 291 288 283 279 277 275 274 274 273 272 270 269 269 269 268 269 269 270 270 269 268 268 269 269 270 271 270 269 270 271 271 273 275 276 276 275 275 276 278 279 282 282 279 280 282 281 281 283 286 288 289 289 288 289 288 286 286
321 321 320 321 322 323 324 324 324 322 321 320 317 316 314 312 313 312 312 312 314 313 311 307 302 300 297 295 295 294 292 289 286 285 284 282 280 277 275 273 270 269 269 270 271 271 272 273 273 272 271 270 270 271 271 272 274 274 273 274 275 275 275 276 278 277 276 276 278 279 280 282 280 277 278 279 279 281 285 287 288 288 288 288 288 287 286 286
315 316 316 317 319 321 323 323 322 320 319 317 314 313 312 312 314 314 313 314 316 315 314 310 304 302 300 297 297 295 291 287 285 284 283 283 283 281 278 274 270 267 267 269 272 274 275 276 275 274 273 272 272 272 273 274 276 277 277 278 278 278 278 279 280 278 277 278 279 279 280 281 280 279 280 279 281 284 287 289 289 289 288 288 287 285 284 283
314 315 315 318 320 322 323 322 321 319 317 314 311 310 311 312 314 315 316 317 319 318 317 314 310 307 304 302 301 297 293 287 282 281 280 283 284 283 280 276 273 269 268 269 272 274 276 276 276 276 275 274 274 273 275 276 277 279 279 280 281 282 282 283 282 280 280 280 281 281 281 281 281 281 283 283 285 287 288 289 289 288 288 287 285 283 283 282
318 318 318 319 320 321 320 319 318 316 313 311 309 308 310 313 314 314 315 316 318 317 316 314 312 310 307 306 304 300 296 290 285 284 284 285 284 282 281 278 276 273 272 272 273 274 275 276 277 276 275 275 275 275 276 277 278 279 281 282 283 283 285 285 284 284 284 284 284 284 284 283 283 284 286 286 287 287 287 287 287 286 286 285 285 284 283 283
322 321 319 319 318 318 317 316 315 312 310 308 306 306 309 313 313 312 312 313 315 315 313 311 310 309 306 304 304 301 297 293 290 290 289 288 286 284 282 280 278 276 277 277 277 277 276 277 277 275 275 276 276 276 277 278 279 281 282 283 283 283 283 283 283 285 286 286 286 287 286 285 285 287 287 287 286 285 284 284 284 285 285 285 285 285 284 283
324 321 319 318 317 316 314 312 311 310 309 307 306 306 308 311 312 310 310 311 313 311 306 301 300 302 302 300 300 298 295 293 293 294 293 291 290 289 286 283 281 280 280 281 281 280 280 279 277 275 275 275 276 277 278 279 280 281 281 281 281 282 281 281 283 284 285 287 288 288 288 287 288 288 288 286 286 286 286 286 286 285 285 285 285 285 284 283
323 320 318 317 316 314 312 311 311 310 309 307 305 305 304 306 307 307 306 305 307 309 301 293 292 295 298 299 297 295 295 295 295 296 295 294 294 293 290 287 285 282 281 281 281 281 281 280 277 275 275 276 277 279 279 280 280 281 281 281 281 282 282 283 284 285 286 287 288 289 288 288 289 289 288 288 288 288 288 288 287 287 286 285 285 284 284 284
322 319 318 317 315 314 312 312 312 311 309 305 303 301 298 298 300 302 302 301 303 307 303 297 294 294 296 296 294 294 295 295 296 298 297 296 294 293 291 288 286 283 281 280 280 280 280 279 277 277 277 277 278 279 279 280 280 281 282 282 283 284 284 286 287 288 288 288 288 288 287 287 289 288 288 289 289 289 289 288 288 287 286 286 285 285 285 285
321 318 316 316 314 314 314 313 313 311 309 306 303 299 294 290 291 295 297 296 299 303 303 301 298 296 295 294 293 293 294 295 297 299 298 296 294 293 291 288 286 284 282 281 280 280 280 277 277 278 278 278 278 278 278 279 280 282 282 283 284 285 286 287 288 289 289 289 289 289 288 288 289 289 289 289 289 289 289 289 288 287 287 286 286 286 285 285
320 316 315 314 314 314 314 314 313 310 308 307 304 301 295 290 287 290 292 293 297 300 302 302 301 299 297 295 294 294 294 296 298 299 299 297 295 293 290 288 286 285 283 283 282 280 278 277 277 276 277 277 277 278 279 280 281 282 283 285 286 287 287 288 288 288 288 289 289 290 290 290 290 290 290 290 290 290 289 289 288 288 287 287 286 285 285 284
319 314 313 313 313 314 315 313 311 309 308 305 304 302 300 296 290 290 292 294 297 298 299 301 302 302 299 296 294 294 295 298 300 300 300 299 296 294 292 289 287 285 284 284 283 281 279 278 278 278 277 277 277 279 280 282 283 283 284 286 286 287 288 288 289 289 289 290 291 290 291 291 291 290 290 290 290 290 289 289 289 288 288 287 286 285 285 285
316 312 312 312 313 314 314 312 309 308 306 305 305 306 305 302 297 295 296 299 298 296 296 299 301 302 301 298 295 293 294 297 299 301 301 301 299 297 294 291 289 287 286 285 284 283 282 281 281 280 280 280 280 282 283 283 284 285 285 286 286 287 288 289 290 290 291 292 292 291 291 291 291 290 290 290 290 290 289 289 289 288 287 286 286 286 287 287
314 311 311 312 313 313 313 311 308 306 304 303 304 306 306 304 302 300 300 303 300 296 295 297 300 302 301 299 295 292 293 295 298 300 301 300 299 298 296 294 292 290 289 288 286 286 285 285 284 284 284 284 284 285 285 285 286 286 287 287 288 289 290 290 291 291 291 292 291 290 290 290 290 290 290 290 290 290 289 289 288 287 286 286 287 288 289 290
311 310 311 311 312 312 312 309 306 305 306 304 302 303 304 304 303 302 305 306 303 301 301 300 301 301 301 299 296 293 293 295 297 299 299 299 298 298 297 296 295 293 291 290 290 289 289 288 287 287 287 287 287 287 288 288 288 288 289 289 290 291 291 291 291 292 292 291 291 291 291 291 290 291 291 290 290 289 288 287 286 286 286 287 290 291 292 293
308 308 310 311 312 313 311 307 305 304 302 301 302 304 304 304 304 306 309 308 307 309 308 305 304 303 301 299 297 295 295 296 298 299 299 298 299 298 297 297 296 295 294 293 292 293 292 291 290 289 289 289 289 289 289 290 290 290 290 291 291 291 292 292 293 293 293 293 293 293 293 292 291 291 290 290 289 288 288 287 288 288 289 291 294 295 295 297
307 308 310 311 313 313 310 305 303 301 299 300 303 307 307 308 308 309 310 308 308 312 311 308 307 304 301 299 298 297 298 299 300 300 300 300 300 299 298 298 298 297 297 296 296 295 295 294 292 291 291 290 290 290 291 291 291 291 292 292 293 293 293 294 294 295 295 295 295 294 293 292 291 291 291 290 290 290 290 290 291 291 293 296 298 298 298 299
308 310 311 312 313 312 308 303 301 303 304 304 304 305 306 307 308 307 307 307 307 309 308 307 306 303 301 300 299 299 299 300 300 300 301 301 301 301 300 300 300 299 298 298 297 297 296 295 294 293 292 292 292 292 292 293 293 294 295 295 295 295 295 295 295 296 295 295 295 294 294 293 293 293 293 293 293 293 294 294 294 295 297 300 300 299 299 298
309 311 311 312 312 310 304 300 302 307 308 305 303 302 302 304 304 303 304 304 305 305 304 304 303 302 303 302 302 302 302 302 302 303 304 303 302 302 301 300 299 298 297 296 295 295 294 293 293 293 293 293 294 294 295 295 296 296 296 296 297 297 297 297 297 297 297 297 297 297 296 295 295 294 294 294 294 295 295 295 297 298 299 300 299 299 298 298
310 311 311 311 312 309 303 301 303 306 307 305 304 304 304 304 303 302 302 303 303 303 303 304 304 304 305 305 305 305 306 306 306 306 306 304 303 302 301 300 299 297 297 295 294 293 292 292 293 293 294 295 295 296 297 297 297 297 297 297 298 298 298 298 298 298 298 298 298 297 296 295 294 293 293 293 294 295 296 297 299 299 299 300 299 298 298 297
310 311 310 312 313 311 309 310 309 309 309 309 309 309 309 308 305 304 303 303 303 304 305 307 308 307 308 307 307 307 307 306 306 305 304 304 303 302 302 301 300 299 297 296 295 295 294 295 295 295 296 297 298 298 298 298 298 298 298 298 298 298 298 299 299 299 299 298 297 296 295 294 294 294 294 295 297 298 299 300 300 300 300 300 299 298 298 297
310 309 310 315 318 319 320 320 317 314 313 314 313 311 310 309 307 306 304 304 305 306 308 309 310 309 309 309 308 307 306 305 305 304 304 303 302 302 302 301 300 299 298 297 297 297 297 298 298 298 299 299 299 300 300 300 299 299 299 299 299 299 300 300 300 299 299 298 297 296 295 295 295 296 297 298 300 300 300 300 299 299 299 299 299 298 296 295
309 309 311 318 324 326 327 324 320 317 314 313 311 310 310 309 308 307 307 308 308 309 309 309 309 308 308 308 307 306 306 306 305 305 304 303 303 302 301 301 300 300 299 299 299 299 299 299 300 300 300 300 300 300 300 300 301 301 301 301 301 302 302 302 301 300 299 298 298 297 296 296 296 296 298 300 301 301 301 300 300 299 299 298 297 295 294 294
310 312 316 321 325 326 324 321 318 315 313 311 310 311 311 310 310 310 310 311 311 311 310 309 308 307 307 307 306 306 306 306 306 305 304 304 303 303 302 302 301 301 301 301 300 300 299 300 300 300 300 300 300 300 300 301 301 301 302 302 303 303 303 303 302 300 299 298 298 297 297 297 297 298 301 302 302 302 301 300 299 298 297 295 294 294 294 294
312 315 319 322 323 321 319 317 315 314 313 312 312 312 311 311 311 311 311 311 311 311 310 310 310 309 308 308 308 307 307 306 306 305 304 304 304 303 303 303 302 302 302 301 300 300 300 300 300 300 300 300 300 301 301 302 302 302 302 303 303 303 302 301 301 300 299 298 298 299 299 299 300 301 302 302 301 300 299 299 298 297 296 295 295 295 295 296
314 318 320 320 318 316 316 316 314 313 314 313 313 312 312 312 311 311 311 311 311 311 311 311 311 311 311 310 309 309 308 307 306 305 304 304 304 304 303 303 302 302 301 300 300 300 300 301 301 302 301 302 302 303 303 303 303 303 303 304 304 303 302 301 300 299 299 300 300 301 300 300 301 302 302 300 300 299 298 298 297 297 296 296 297 297 298 299
317 318 317 315 314 314 315 315 314 314 314 314 313 312 313 312 312 312 312 312 312 313 313 313 313 313 312 311 310 309 308 307 306 305 304 304 303 303 302 302 302 302 302 302 302 303 303 304 304 304 304 304 304 304 304 304 304 304 305 305 305 303 303 302 302 301 301 302 302 301 300 301 302 302 301 300 300 300 299 298 298 298 298 299 300 301 301 302
316 314 312 312 312 313 314 314 314 314 313 313 313 313 313 313 312 313 313 314 315 315 315 315 314 313 312 312 311 309 308 306 305 304 304 303 304 304 304 304 305 305 306 307 307 307 307 307 307 307 306 306 305 305 305 305 305 306 306 306 305 304 304 304 303 303 303 302 302 301 301 302 303 302 301 301 301 301 301 301 301 302 302 302 302 303 303 303
311 309 309 310 311 313 314 313 313 313 313 314 314 313 313 313 313 314 315 316 316 316 315 314 314 313 313 313 312 310 310 309 308 308 308 308 309 309 310 310 310 310 310 310 310 310 309 308 308 308 307 307 306 306 306 306 307 306 306 306 307 307 306 304 303 304 304 304 303 301 301 302 302 302 302 302 302 302 302 302 303 303 303 303 303 303 303 303
308 308 310 310 310 312 313 312 312 313 314 315 314 314 314 314 314 315 316 316 316 315 315 315 314 315 315 315 315 316 317 318 318 318 317 316 316 316 315 315 314 313 313 313 313 312 311 310 309 309 308 306 306 305 306 308 308 307 307 308 308 306 305 303 303 304 304 304 303 302 302 303 303 303 303 303 303 304 304 305 305 304 304 304 303 303 303 302
311 311 311 310 310 312 312 313 314 315 315 315 315 315 315 315 315 315 315 315 315 315 315 315 316 317 317 319 321 324 326 325 324 322 321 320 319 318 317 317 316 316 315 315 314 312 311 310 310 310 309 307 307 307 308 309 309 308 308 309 307 306 305 305 306 306 306 306 305 305 306 306 306 305 305 305 305 305 305 305 304 303 302 302 302 302 302 302
313 313 312 311 312 313 314 315 315 315 315 315 315 315 315 315 315 314 314 314 315 315 316 317 317 318 320 322 325 326 326 325 323 322 321 320 320 320 320 319 317 316 315 314 312 311 310 310 310 310 309 308 309 310 310 310 310 309 309 309 308 307 307 307 307 307 307 306 306 306 305 305 304 304 304 303 302 302 301 300 300 300 301 302 302 302 303 303
312 313 312 312 314 314 314 315 314 314 315 316 316 316 315 314 314 314 314 315 315 316 317 318 319 320 321 323 324 324 324 323 322 321 320 320 320 320 319 317 316 314 313 312 311 310 310 310 310 310 309 309 311 312 311 311 310 310 310 310 308 308 308 308 308 307 306 305 305 304 304 303 302 302 302 301 301 301 301 301 301 302 303 304 304 305 305 306
312 314 315 315 316 316 315 315 316 316 316 316 315 315 314 314 314 314 315 315 316 317 318 319 320 320 321 322 322 323 322 322 321 320 320 319 319 318 316 315 314 312 311 311 310 310 310 311 312 311 310 311 312 312 311 311 311 311 311 310 308 308 309 308 308 307 306 305 305 304 304 304 304 304 304 303 304 304 305 305 306 306 307 307 307 308 309 309
318 318 318 317 316 316 316 316 316 316 315 315 315 314 314 314 314 314 315 315 316 318 319 320 321 321 321 322 322 322 322 321 320 319 319 317 316 315 314 313 312 311 311 310 310 311 312 313 313 312 310 311 312 311 311 312 312 312 311 309 308 309 309 308 308 308 308 307 307 307 306 306 306 306 307 307 308 308 309 308 308 309 310 310 310 310 311 311
319 318 317 316 316 317 316 316 316 315 315 315 314 314 313 314 314 314 315 317 318 320 321 321 322 322 322 323 323 322 321 321 320 319 318 316 315 314 313 313 313 313 312 312 313 315 315 314 313 312 311 312 312 312 312 313 312 312 311 309 309 309 309 309 309 309 308 308 308 307 306 306 307 309 309 310 310 310 310 310 311 311 312 312 312 312 312 312
318 317 317 317 317 317 316 315 315 315 314 314 313 313 313 314 315 316 318 320 321 322 323 323 323 323 323 323 322 321 320 320 319 318 317 316 315 315 315 315 315 315 315 315 316 316 316 315 314 313 313 313 313 313 313 313 313 312 311 310 310 309 309 309 309 308 308 307 307 306 306 307 309 310 311 311 312 312 312 312 313 313 314 314 314 313 312 312
318 317 316 316 315 315 314 314 315 315 314 315 315 315 316 317 319 320 321 322 323 324 324 324 323 323 322 322 321 320 319 319 318 317 317 317 317 317 317 317 318 317 317 317 317 317 316 315 315 315 314 314 314 314 314 314 314 313 311 310 310 310 310 309 309 309 309 309 308 308 309 310 312 312 313 314 314 314 314 314 315 315 315 314 314 314 314 314